Weather History for Haleyville, AL

Change the Weather History Date:

Wednesday, February 13, 2013

  Actual Average (KJFX) Record (KJFX)
Temperature  
Mean Temperature 40 °F -  
Max Temperature 43 °F 53 °F 84 °F (1962)
Min Temperature 38 °F 28 °F 10 °F (1981)
Degree Days  
Heating Degree Days 24    
Moisture  
Dew Point 39 °F    
Average Humidity 91    
Maximum Humidity 100    
Minimum Humidity 79    
Precipitation  
Precipitation 0.01 in - - ()
Sea Level Pressure  
Sea Level Pressure 29.89 in    
Wind  
Wind Speed 7 mph (West)    
Max Wind Speed 16 mph    
Max Gust Speed 24 mph    
Visibility 7 miles    
Events      
Averages and records for this station are not official NWS values.
T = Trace of Precipitation, MM = Missing Value Source: NWS Daily Summary

Daily Weather History Graph

Daily Weather History Graph

Search for Another Location

Airport:

Trip Planner

Search our weather history database for the weather conditions in past years. The results will help you decide how hot, cold, wet, or windy it might be!

Date:

Astronomy

Feb. 13, 2013 Rise Set
Actual Time 6:37 AM CST 5:32 PM CST
Civil Twilight 6:11 AM CST 5:58 PM CST
Nautical Twilight 5:42 AM CST 6:27 PM CST
Astronomical Twilight 5:12 AM CST 6:56 PM CST
Moon 8:18 AM CST (2/13) 9:21 PM CST (2/13)
Length of Visible Light 11h 46m
Length of Day
10h 55m
Waxing Crescent, 14% of the Moon is Illuminated
Feb 13
Waxing Crescent
Feb 17
First Quarter
Feb 25
Full
Mar 4
Last Quarter
Mar 11
New

Hourly Weather History & Observations

Time (CST) Temp. Windchill Dew Point Humidity Pressure Visibility Wind Dir Wind Speed Gust Speed Precip Events Conditions
12:21 AM 39.2 °F 35.0 °F 39.2 °F 100% 29.77 in 2.5 mi East 5.8 mph - N/A   Overcast
12:56 AM 41.0 °F 37.1 °F 41.0 °F 100% 29.80 in 2.0 mi East 5.8 mph - N/A   Overcast
1:43 AM 41.0 °F 37.1 °F 41.0 °F 100% 29.76 in 1.8 mi SSE 5.8 mph - N/A   Overcast
1:56 AM 41.0 °F - 41.0 °F 100% 29.81 in 1.8 mi Calm Calm - N/A   Overcast
2:41 AM 41.0 °F 38.0 °F 41.0 °F 100% 29.74 in 2.0 mi SSW 4.6 mph - N/A   Overcast
2:56 AM 41.0 °F 36.4 °F 41.0 °F 100% 29.79 in 2.0 mi SSW 6.9 mph - N/A   Overcast
3:21 AM 42.8 °F 38.6 °F 42.8 °F 100% 29.74 in 1.8 mi SSW 6.9 mph - 0.01 in   Overcast
3:28 AM 42.8 °F 38.6 °F 42.8 °F 100% 29.74 in 1.5 mi SSW 6.9 mph - 0.01 in   Overcast
3:45 AM 42.8 °F 38.6 °F 42.8 °F 100% 29.74 in 2.0 mi SSW 6.9 mph - 0.01 in   Overcast
3:56 AM 41.9 °F 37.5 °F 41.9 °F 100% 29.78 in 1.5 mi SW 6.9 mph - 0.01 in   Overcast
4:09 AM 42.8 °F 39.3 °F 42.8 °F 100% 29.74 in 1.2 mi SW 5.8 mph - N/A   Overcast
4:27 AM 42.8 °F 38.6 °F 42.8 °F 100% 29.74 in 1.5 mi SW 6.9 mph - N/A   Overcast
4:40 AM 42.8 °F 38.0 °F 42.8 °F 100% 29.75 in 2.5 mi SW 8.1 mph - N/A   Overcast
4:56 AM 41.9 °F 35.9 °F 41.9 °F 100% 29.80 in 2.0 mi SW 10.4 mph - N/A   Overcast
5:08 AM 42.8 °F 37.5 °F 42.8 °F 100% 29.75 in 1.5 mi WSW 9.2 mph 17.3 mph N/A   Overcast
5:31 AM 42.8 °F 35.8 °F 42.8 °F 100% 29.77 in 2.5 mi WSW 13.8 mph 18.4 mph N/A   Overcast
5:39 AM 42.8 °F 35.1 °F 42.8 °F 100% 29.78 in 3.0 mi WSW 16.1 mph 21.9 mph N/A   Overcast
5:56 AM 41.9 °F 34.3 °F 41.9 °F 100% 29.83 in 4.0 mi WSW 15.0 mph 24.2 mph 0.00 in   Overcast
6:06 AM 42.8 °F 36.2 °F 42.8 °F 100% 29.80 in 4.0 mi WSW 12.7 mph 24.2 mph N/A   Overcast
6:56 AM 41.9 °F 34.6 °F 41.0 °F 97% 29.86 in 10.0 mi West 13.8 mph 20.7 mph 0.00 in   Overcast
7:41 AM 42.8 °F 37.0 °F 39.2 °F 87% 29.82 in 10.0 mi West 10.4 mph - N/A   Overcast
7:56 AM 41.9 °F 35.4 °F 39.9 °F 93% 29.88 in 10.0 mi West 11.5 mph - N/A   Overcast
8:30 AM 42.8 °F 37.5 °F 39.2 °F 87% 29.86 in 10.0 mi West 9.2 mph - N/A   Overcast
8:56 AM 43.9 °F 37.9 °F 39.9 °F 86% 29.89 in 10.0 mi West 11.5 mph 16.1 mph N/A   Mostly Cloudy
9:56 AM 43.0 °F 38.2 °F 39.9 °F 89% 29.91 in 10.0 mi West 8.1 mph 17.3 mph N/A   Overcast
10:56 AM 41.9 °F 36.3 °F 37.9 °F 86% 29.94 in 10.0 mi WNW 9.2 mph 17.3 mph N/A   Overcast
11:20 AM 42.8 °F 38.6 °F 37.4 °F 81% 29.90 in 10.0 mi Variable 6.9 mph - N/A   Overcast
11:56 AM 41.9 °F 35.9 °F 36.9 °F 82% 29.95 in 10.0 mi NW 10.4 mph 17.3 mph N/A   Overcast
12:09 PM 41.0 °F 34.3 °F 37.4 °F 87% 29.92 in 10.0 mi NW 11.5 mph - N/A   Overcast
12:56 PM 41.9 °F 36.3 °F 36.0 °F 79% 29.95 in 10.0 mi WNW 9.2 mph 16.1 mph N/A   Overcast
1:13 PM 41.0 °F 33.9 °F 35.6 °F 81% 29.91 in 10.0 mi NW 12.7 mph 17.3 mph N/A   Overcast
1:27 PM 41.0 °F 34.3 °F 35.6 °F 81% 29.92 in 10.0 mi NW 11.5 mph - N/A   Overcast
1:56 PM 39.9 °F 33.9 °F 34.9 °F 82% 29.98 in 10.0 mi NNW 9.2 mph - N/A   Overcast
2:14 PM 39.2 °F 33.6 °F 35.6 °F 87% 29.94 in 10.0 mi NNW 8.1 mph - N/A   Overcast
2:34 PM 39.2 °F 33.0 °F 35.6 °F 87% 29.95 in 10.0 mi NNW 9.2 mph - N/A   Overcast
2:56 PM 39.9 °F 34.5 °F 34.9 °F 82% 29.99 in 10.0 mi NW 8.1 mph - N/A   Overcast
3:56 PM 39.9 °F 36.7 °F 34.9 °F 82% 30.01 in 10.0 mi North 4.6 mph - N/A   Overcast
4:56 PM 39.9 °F 36.7 °F 34.9 °F 82% 30.02 in 10.0 mi NNW 4.6 mph - N/A   Overcast
5:13 PM 41.0 °F - 35.6 °F 81% 29.98 in 10.0 mi Calm Calm - N/A   Overcast
5:39 PM 39.2 °F - 35.6 °F 87% 29.99 in 10.0 mi Calm Calm - N/A   Mostly Cloudy
5:56 PM 39.9 °F - 34.9 °F 82% 30.03 in 10.0 mi Calm Calm - N/A   Overcast
6:56 PM 38.8 °F - 34.9 °F 86% 30.04 in 10.0 mi Calm Calm - N/A   Overcast
7:56 PM 38.8 °F - 34.9 °F 86% 30.06 in 10.0 mi Calm Calm - N/A   Overcast
8:56 PM 38.8 °F - 36.0 °F 89% 30.08 in 9.0 mi Calm Calm - N/A   Overcast
9:56 PM 38.8 °F - 34.9 °F 86% 30.09 in 9.0 mi Calm Calm - N/A   Overcast
10:56 PM 38.8 °F - 34.0 °F 83% 30.10 in 10.0 mi Calm Calm - N/A   Overcast
11:56 PM 38.8 °F - 34.9 °F 86% 30.10 in 9.0 mi Calm Calm - N/A   Overcast